Weather History for KOFK - March, 2013

Change the Weather History Date:

Sunday, March 3, 2013

  Actual Average Record
Temperature  
Mean Temperature 35 °F 32 °F  
Max Temperature 43 °F 43 °F 77 °F (1921)
Min Temperature 26 °F 22 °F -14 °F (2014)
Degree Days  
Heating Degree Days 30 33  
Month to date heating degree days 112 100  
Since 1 July heating degree days 5033 5193  
Cooling Degree Days 0 0  
Month to date cooling degree days 0 0  
Year to date cooling degree days 0 0  
Moisture  
Dew Point 27 °F    
Average Humidity 79    
Maximum Humidity 92    
Minimum Humidity 65    
Precipitation  
Precipitation 0.00 in 0.04 in 0.61 in (1979)
Month to date precipitation T 0.11  
Year to date precipitation 0.90 1.46  
Snow  
Snow 0.00 in 0.20 in - ()
Month to date snowfall T 0.6  
Since 1 July snowfall 14.9 23.4  
Snow Depth T in    
Sea Level Pressure  
Sea Level Pressure 29.83 in    
Wind  
Wind Speed 12 mph (SE)    
Max Wind Speed 26 mph    
Max Gust Speed 30 mph    
Visibility 9 miles    
Events      
T = Trace of Precipitation, MM = Missing Value Source: NWS Daily Summary

Daily Weather History Graph

Daily Weather History Graph

Search for Another Location

Airport or City:

Trip Planner

Search our weather history database for the weather conditions in past years. The results will help you decide how hot, cold, wet, or windy it might be!

Date:

Astronomy

Mar. 03, 2013 Rise Set
Actual Time 7:01 AM CST 6:22 PM CST
Civil Twilight 6:33 AM CST 6:50 PM CST
Nautical Twilight 6:00 AM CST 7:22 PM CST
Astronomical Twilight 5:28 AM CST 7:55 PM CST
Moon 12:08 AM CST (3/3) 10:10 AM CST (3/3)
Length of Visible Light 12h 17m
Length of Day
11h 21m
Waning Gibbous, 63% of the Moon is Illuminated
Mar 3
Waning Gibbous
Mar 4
Last Quarter
Mar 11
New
Mar 19
First Quarter
Mar 27
Full

Hourly Weather History & Observations

Time (CST) Temp. Windchill Dew Point Humidity Pressure Visibility Wind Dir Wind Speed Gust Speed Precip Events Conditions
12:56 AM 30.0 °F 23.2 °F 26.1 °F 85% 30.03 in 10.0 mi SE 6.9 mph - N/A   Clear
1:56 AM 30.0 °F 23.2 °F 26.1 °F 85% 30.01 in 10.0 mi SE 6.9 mph - N/A   Clear
2:56 AM 28.0 °F 21.7 °F 25.0 °F 88% 29.98 in 9.0 mi SSE 5.8 mph - N/A   Clear
3:56 AM 28.0 °F 21.7 °F 25.0 °F 88% 29.95 in 8.0 mi ESE 5.8 mph - N/A   Clear
4:56 AM 26.1 °F 19.4 °F 24.1 °F 92% 29.96 in 7.0 mi SE 5.8 mph - N/A   Clear
5:56 AM 26.1 °F 18.4 °F 23.0 °F 88% 29.95 in 8.0 mi ESE 6.9 mph - N/A   Clear
6:56 AM 26.1 °F 17.6 °F 23.0 °F 88% 29.94 in 8.0 mi ESE 8.1 mph - N/A   Clear
7:56 AM 27.0 °F 19.5 °F 24.1 °F 89% 29.93 in 6.0 mi SE 6.9 mph - N/A   Clear
8:56 AM 30.0 °F 22.4 °F 25.0 °F 82% 29.92 in 7.0 mi SE 8.1 mph - N/A   Clear
9:56 AM 33.1 °F 25.5 °F 26.1 °F 75% 29.90 in 9.0 mi SE 9.2 mph - N/A   Clear
10:56 AM 36.0 °F 28.0 °F 28.0 °F 73% 29.87 in 10.0 mi SE 11.5 mph - N/A   Clear
11:56 AM 37.9 °F 30.5 °F 28.9 °F 70% 29.84 in 10.0 mi ESE 11.5 mph - N/A   Clear
12:56 PM 41.0 °F 32.8 °F 30.0 °F 65% 29.81 in 10.0 mi ESE 16.1 mph - N/A   Partly Cloudy
1:56 PM 41.0 °F 33.1 °F 30.0 °F 65% 29.79 in 9.0 mi SSE 15.0 mph - N/A   Clear
2:56 PM 39.9 °F 31.8 °F 30.0 °F 68% 29.76 in 9.0 mi ESE 15.0 mph - N/A   Scattered Clouds
3:56 PM 39.0 °F 30.6 °F 30.0 °F 70% 29.75 in 8.0 mi ESE 15.0 mph 23.0 mph N/A   Overcast
4:56 PM 37.0 °F 26.2 °F 28.9 °F 73% 29.70 in 8.0 mi ESE 21.9 mph 28.8 mph N/A   Overcast
5:56 PM 37.0 °F 28.1 °F 28.0 °F 70% 29.72 in 9.0 mi SE 15.0 mph 27.6 mph N/A   Overcast
6:56 PM 36.0 °F 27.5 °F 28.0 °F 73% 29.73 in 10.0 mi SE 12.7 mph - N/A   Scattered Clouds
7:56 PM 35.1 °F 25.2 °F 28.0 °F 76% 29.74 in 9.0 mi SE 16.1 mph - N/A   Clear
8:56 PM 34.0 °F 24.2 °F 27.0 °F 75% 29.72 in 9.0 mi SE 15.0 mph - N/A   Mostly Cloudy
9:56 PM 34.0 °F 23.0 °F 27.0 °F 75% 29.71 in 9.0 mi SE 18.4 mph 24.2 mph N/A   Partly Cloudy
10:56 PM 33.1 °F 22.2 °F 27.0 °F 78% 29.68 in 8.0 mi SE 17.3 mph - N/A   Clear
11:56 PM 32.0 °F 20.8 °F 26.1 °F 79% 29.68 in 8.0 mi SE 17.3 mph - N/A   Mostly Cloudy